Date,TemperatureHighF,TemperatureAvgF,TemperatureLowF,DewpointHighF,DewpointAvgF,DewpointLowF,HumidityHigh,HumidityAvg,HumidityLow,PressureMaxIn,PressureMinIn,WindSpeedMaxMPH,WindSpeedAvgMPH,GustSpeedMaxMPH,PrecipitationSumIn
2013-1-1,25.0,21.8,19.0,21.0,18.2,16.0,92,86,74,30.14,30.03,11,5,0,0.72
2013-1-2,26.0,23.4,19.0,26.0,22.5,17.0,100,95,88,30.12,30.05,14,6,0,0.72
2013-1-3,29.0,25.0,20.0,28.0,24.2,17.0,100,96,88,30.13,29.99,13,6,0,0.72
2013-1-4,31.0,28.4,25.0,29.0,27.2,24.0,99,95,89,30.13,29.99,15,9,0,0.72
2013-1-5,36.0,27.0,16.0,34.0,26.3,16.0,100,97,81,30.19,29.92,12,4,0,0.72
2013-1-6,35.0,33.1,31.0,35.0,32.6,29.0,100,98,90,30.25,29.82,16,6,0,0.72
2013-1-7,36.0,31.5,29.0,31.0,28.0,23.0,100,87,62,30.26,30.06,18,8,0,0.72
2013-1-8,37.0,32.3,28.0,35.0,31.0,28.0,100,95,84,30.16,30.05,11,7,0,0.72
2013-1-9,43.0,38.3,33.0,39.0,33.9,29.0,98,85,64,30.40,29.93,16,6,0,0.72
2013-1-10,42.0,32.9,23.0,36.0,29.7,23.0,100,89,63,30.51,30.04,11,3,0,0.69
2013-1-11,50.0,43.1,35.0,50.0,43.1,35.0,100,100,100,30.04,29.69,8,2,0,0.72
2013-1-12,55.0,47.2,37.0,53.0,45.1,35.0,100,93,68,29.94,29.72,14,8,0,0.69
2013-1-13,37.0,30.1,23.0,36.0,29.9,21.0,100,99,95,30.08,29.83,11,2,0,0.69
2013-1-14,25.0,21.0,19.0,21.0,19.8,18.0,100,95,81,30.39,30.08,0,0,0,0.72
2013-1-15,30.0,24.4,20.0,25.0,22.1,20.0,100,91,74,30.38,30.11,10,2,0,0.72
2013-1-16,34.0,28.5,22.0,33.0,26.7,21.0,100,93,68,30.11,29.74,19,8,0,0.72
2013-1-17,33.0,25.9,19.0,33.0,21.5,12.0,100,84,69,30.32,29.93,17,9,0,0.72
2013-1-18,39.0,24.9,13.0,35.0,21.3,11.0,100,86,74,30.37,29.85,21,9,0,0.72
2013-1-19,43.0,40.5,37.0,41.0,37.5,24.0,98,89,56,29.85,29.54,18,11,0,0.72
2013-1-20,39.0,16.7,13.0,25.0,14.3,10.0,100,91,56,30.18,29.56,24,11,0,0.72
2013-1-21,15.0,9.1,1.0,14.0,8.5,-1.0,100,97,86,30.12,29.99,20,11,0,0.72
2013-1-22,8.0,2.3,-2.0,5.0,0.6,-3.0,98,93,80,30.25,30.12,13,7,0,0.72
2013-1-23,17.0,9.3,-3.0,17.0,9.2,-4.0,100,100,97,30.25,30.02,18,6,0,0.72
2013-1-24,18.0,9.3,-1.0,12.0,7.0,-1.0,100,91,68,30.58,30.16,9,3,0,0.72
2013-1-25,21.0,16.6,12.0,21.0,15.5,8.0,100,95,82,30.44,29.93,16,7,0,0.72
2013-1-26,28.0,22.8,19.0,26.0,21.8,19.0,100,96,81,30.38,30.01,13,4,0,0.72
2013-1-27,31.0,25.9,22.0,31.0,24.4,22.0,100,94,79,30.39,29.99,13,7,0,0.72
2013-1-28,42.0,35.3,31.0,42.0,35.3,31.0,100,100,100,29.99,29.79,11,4,0,0.72
2013-1-29,55.0,44.9,31.0,55.0,44.9,31.0,100,100,100,29.95,29.38,12,6,0,0.51
2013-1-30,51.0,37.8,24.0,51.0,37.8,24.0,100,100,100,29.38,29.10,21,6,0,0.69
2013-1-31,24.0,17.6,15.0,24.0,17.6,15.0,100,100,100,29.88,29.34,14,9,0,0.51
2013-2-1,16.0,14.0,12.0,16.0,13.9,12.0,100,100,96,30.19,29.88,17,8,0,0.72
2013-2-2,16.0,12.3,1.0,16.0,11.2,0.0,100,95,81,30.11,29.97,11,4,0,0.72
2013-2-3,18.0,12.9,2.0,18.0,12.8,2.0,100,99,91,29.98,29.84,14,4,0,0.72
2013-2-4,20.0,15.4,6.0,18.0,14.6,5.0,100,97,85,29.98,29.86,9,2,0,0.72
2013-2-5,29.0,18.1,5.0,29.0,18.0,5.0,100,99,94,29.98,29.72,17,6,0,0.72
2013-2-6,31.0,22.8,10.0,27.0,21.2,10.0,100,94,79,30.24,29.99,10,3,0,0.72
2013-2-7,31.0,28.8,26.0,31.0,28.3,26.0,100,98,88,30.19,29.87,13,-6,0,0.72
2013-2-8,30.0,25.5,14.0,29.0,24.6,13.0,100,96,79,30.35,29.87,20,11,0,0.63
2013-2-9,31.0,15.7,0.0,24.0,13.9,0.0,100,93,73,30.40,30.18,14,3,0,0.69
2013-2-10,40.0,26.9,16.0,40.0,26.5,16.0,100,98,90,30.18,29.55,15,4,0,0.69
2013-2-11,43.0,35.5,30.0,43.0,34.8,28.0,100,97,89,29.86,29.47,16,7,0,0.72
2013-2-12,30.0,28.0,26.0,28.0,26.5,25.0,98,94,91,30.02,29.85,16,6,0,0.72
2013-2-13,36.0,29.6,21.0,34.0,29.3,21.0,100,98,92,29.90,29.70,14,3,0,0.72
2013-2-14,38.0,32.0,26.0,38.0,31.9,26.0,100,100,95,29.89,29.58,18,6,0,0.72
2013-2-15,27.0,23.5,19.0,26.0,20.5,18.0,100,88,73,30.12,29.89,14,5,0,0.72
2013-2-16,23.0,17.6,11.0,19.0,16.3,11.0,100,95,71,30.09,30.00,12,6,0,0.72
2013-2-17,23.0,13.3,3.0,16.0,10.4,3.0,100,88,69,30.17,30.08,10,4,0,0.72
2013-2-18,44.0,31.8,18.0,43.0,26.4,15.0,100,81,68,30.09,29.41,23,12,0,0.72
2013-2-19,43.0,24.6,16.0,43.0,24.6,16.0,100,100,100,29.94,29.34,20,12,0,0.72
2013-2-20,22.0,18.5,15.0,21.0,17.2,14.0,100,95,86,30.27,29.95,22,6,0,0.72
2013-2-21,24.0,21.6,18.0,22.0,20.0,17.0,98,93,86,30.36,30.17,16,11,0,0.72
2013-2-22,32.0,25.2,19.0,32.0,25.1,18.0,100,100,97,30.17,29.82,18,2,0,0.72
2013-2-23,32.0,28.8,26.0,32.0,28.6,26.0,100,99,89,29.88,29.80,11,5,0,0.72
2013-2-24,36.0,30.1,22.0,32.0,28.3,21.0,100,93,74,30.12,29.86,13,4,0,0.72
2013-2-25,38.0,23.9,12.0,34.0,21.4,12.0,100,91,69,30.19,30.07,9,2,0,0.66
2013-2-26,36.0,31.1,27.0,33.0,28.5,25.0,100,90,77,30.10,29.55,29,18,0,0.72
2013-2-27,35.0,33.7,32.0,35.0,33.7,32.0,100,100,100,29.61,29.48,14,4,0,0.72
2013-2-28,35.0,32.9,29.0,35.0,32.0,27.0,100,97,92,30.00,29.61,17,13,0,0.72
2013-3-1,30.0,26.2,21.0,27.0,22.5,18.0,94,86,71,30.14,30.00,13,9,0,0.72
2013-3-2,30.0,21.6,14.0,22.0,16.6,-99.9,100,86,70,30.14,30.06,19,8,0,0.72
2013-3-3,30.0,22.1,10.0,22.0,16.1,-99.9,100,83,59,30.09,30.00,59,7,0,0.70
2013-3-4,33.0,19.9,6.0,23.0,15.3,6.0,100,84,56,30.14,30.05,8,2,0,0.72
2013-3-5,31.0,25.2,19.0,27.0,22.6,16.0,99,90,80,30.10,29.85,20,9,0,0.72
2013-3-6,41.0,33.4,27.0,34.0,31.2,27.0,100,92,71,30.22,29.95,17,8,0,0.72
2013-3-7,35.0,31.2,23.0,33.0,27.1,21.0,100,86,66,30.40,30.21,14,8,0,0.72
2013-3-8,37.0,24.4,15.0,28.0,22.1,15.0,100,92,67,30.48,30.37,10,2,0,0.60
2013-3-9,41.0,33.9,24.0,38.0,29.8,24.0,100,86,65,30.37,29.94,13,5,0,0.72
2013-3-10,46.0,43.2,39.0,46.0,42.2,37.0,100,97,79,29.94,29.68,10,4,0,0.69
2013-3-11,49.0,43.0,34.0,49.0,43.0,33.0,100,100,97,29.69,29.45,15,3,0,0.72
2013-3-12,34.0,30.6,27.0,34.0,30.4,27.0,100,99,94,29.87,29.63,10,2,0,0.72
2013-3-13,30.0,26.0,21.0,27.0,21.7,16.0,100,85,60,30.22,29.87,21,4,0,0.72
2013-3-14,37.0,26.6,18.0,29.0,22.7,18.0,100,85,63,30.25,30.05,6,1,0,0.60
2013-3-15,38.0,34.9,31.0,37.0,34.3,29.0,100,98,90,30.06,29.84,9,2,0,0.69
2013-3-16,34.0,28.1,24.0,30.0,25.9,22.0,100,92,66,30.06,29.76,12,2,0,0.69
2013-3-17,30.0,25.9,22.0,25.0,18.6,15.0,91,74,58,30.26,30.05,13,4,0,0.72
2013-3-18,33.0,26.8,21.0,33.0,25.9,19.0,100,96,88,30.13,29.55,0,0,0,0.72
2013-3-19,33.0,23.5,20.0,33.0,22.1,17.0,100,95,72,29.92,29.57,1,0,0,0.72
2013-3-20,24.0,20.0,14.0,21.0,17.3,14.0,100,89,75,29.95,29.89,13,3,0,0.72
2013-3-21,30.0,23.4,14.0,29.0,22.1,14.0,100,95,80,29.96,29.87,19,7,0,0.72
2013-3-22,37.0,29.1,26.0,28.0,24.8,23.0,91,84,66,30.02,29.95,13,6,0,0.66
2013-3-23,37.0,30.9,28.0,28.0,27.1,25.0,96,86,70,30.11,30.02,13,6,0,0.72
2013-3-24,36.0,30.0,25.0,30.0,27.5,25.0,100,91,70,30.04,29.70,19,9,0,0.72
2013-3-25,38.0,32.6,29.0,30.0,28.2,25.0,94,85,69,29.97,29.67,18,14,0,0.66
2013-3-26,38.0,33.9,30.0,36.0,33.1,30.0,100,97,88,30.16,29.99,14,9,0,0.54
2013-3-27,41.0,33.5,30.0,34.0,30.5,26.0,100,90,59,30.24,30.16,11,6,0,0.51
2013-3-28,45.0,33.7,28.0,34.0,28.2,24.0,100,83,46,30.29,30.24,12,2,0,0.57
2013-3-29,51.0,36.1,24.0,41.0,27.8,24.0,100,76,37,30.28,30.21,12,2,0,0.72
2013-3-30,54.0,39.5,24.0,37.0,29.6,24.0,100,73,38,30.21,29.85,15,4,0,0.72
2013-3-31,48.0,41.9,35.0,44.0,38.6,-99.9,100,92,64,29.85,29.65,16,4,0,0.72
2013-4-1,33.0,28.8,27.0,33.0,21.4,17.0,100,74,57,30.09,29.76,20,6,0,0.72
2013-4-2,37.0,29.6,19.0,27.0,21.1,16.0,100,74,45,30.24,30.09,21,6,0,0.72
2013-4-3,44.0,31.7,21.0,25.0,21.7,18.0,96,69,40,30.44,30.24,15,2,0,0.72
2013-4-4,52.0,38.5,24.0,29.0,25.8,23.0,98,64,37,30.33,29.95,13,4,0,0.72
2013-4-5,47.0,38.0,31.0,32.0,25.2,19.0,89,62,35,30.19,29.95,14,4,0,0.72
2013-4-6,57.0,44.3,34.0,42.0,28.1,20.0,78,54,39,30.18,29.65,19,8,0,0.72
2013-4-7,54.0,44.0,34.0,51.0,40.7,33.0,100,89,70,30.01,29.54,17,2,0,0.72
2013-4-8,49.0,40.5,33.0,49.0,40.0,33.0,100,99,93,30.01,29.64,14,2,0,0.72
2013-4-9,45.0,41.6,39.0,45.0,41.6,39.0,100,100,100,30.04,29.87,16,5,0,0.72
2013-4-10,42.0,39.9,38.0,42.0,39.5,35.0,100,99,92,30.05,29.83,23,12,0,0.72
2013-4-11,38.0,35.4,34.0,36.0,35.1,34.0,100,99,87,29.97,29.65,18,1,0,0.72
2013-4-12,39.0,35.6,33.0,39.0,35.6,33.0,100,100,100,29.75,29.54,19,5,0,0.72
2013-4-13,39.0,35.8,34.0,36.0,33.3,28.0,100,91,64,29.96,29.75,14,2,0,0.72
2013-4-14,45.0,37.2,29.0,43.0,36.1,29.0,100,96,84,30.08,29.83,17,6,0,0.72
2013-4-15,62.0,52.2,43.0,58.0,49.7,40.0,100,92,82,29.93,29.78,19,9,0,0.72
2013-4-16,52.0,45.2,39.0,47.0,39.1,34.0,100,81,54,30.26,29.91,14,6,0,0.72
2013-4-17,49.0,43.3,39.0,44.0,39.1,35.0,100,86,64,30.33,29.96,20,7,0,0.72
2013-4-18,62.0,52.2,43.0,62.0,52.2,43.0,100,100,96,29.96,29.42,19,9,0,0.72
2013-4-19,60.0,39.5,35.0,60.0,37.4,28.0,100,92,76,29.74,29.40,22,12,0,0.72
2013-4-20,38.0,32.2,28.0,31.0,23.1,19.0,91,69,55,30.42,29.74,21,11,0,0.72
2013-4-21,50.0,37.1,24.0,34.0,27.1,24.0,100,70,42,30.57,30.37,17,7,0,0.72
2013-4-22,63.0,49.6,35.0,36.0,33.3,31.0,93,58,31,30.38,30.11,13,8,0,0.72
2013-4-23,61.0,49.7,39.0,54.0,43.3,32.0,100,80,46,30.12,29.85,15,8,0,0.72
2013-4-24,46.0,38.2,33.0,38.0,32.3,26.0,100,82,46,30.08,29.88,18,11,0,0.72
2013-4-25,49.0,41.8,37.0,41.0,35.1,29.0,100,79,48,30.31,30.00,18,8,0,0.72
2013-4-26,63.0,48.2,33.0,44.0,36.9,32.0,100,69,40,30.39,30.24,19,8,0,0.72
2013-4-27,69.0,57.0,42.0,50.0,44.1,38.0,100,66,33,30.29,30.07,13,6,0,0.72
2013-4-28,64.0,57.1,49.0,57.0,47.6,-99.9,99,74,60,30.07,29.83,13,6,0,0.72
2013-4-29,70.0,58.7,45.0,59.0,53.2,45.0,100,84,54,29.92,29.84,13,4,0,0.72
2013-4-30,77.0,65.5,57.0,64.0,58.9,56.0,100,81,54,29.97,29.85,20,13,0,0.72
2013-5-1,83.0,72.7,62.0,64.0,58.7,52.0,92,65,34,30.19,29.97,16,7,0,0.72
2013-5-2,81.0,67.7,54.0,61.0,57.8,53.0,97,74,40,30.20,30.09,18,5,0,0.72
2013-5-3,78.0,64.5,50.0,61.0,53.5,40.0,100,72,36,30.13,29.98,19,8,0,0.72
2013-5-4,73.0,66.0,57.0,49.0,44.0,37.0,68,46,32,30.09,30.01,16,7,0,0.72
2013-5-5,74.0,63.6,53.0,47.0,42.0,35.0,67,47,30,30.10,30.00,14,5,0,0.72
2013-5-6,76.0,62.8,49.0,49.0,40.8,32.0,81,48,20,30.06,29.97,11,5,0,0.72
2013-5-7,77.0,64.9,49.0,51.0,45.6,41.0,85,53,31,30.07,29.99,11,4,0,0.72
2013-5-8,79.0,65.8,53.0,59.0,52.9,45.0,95,66,37,30.05,29.96,16,3,0,0.72
2013-5-9,79.0,64.7,51.0,57.0,49.6,45.0,100,65,31,29.98,29.90,9,3,0,0.72
2013-5-10,62.0,49.3,44.0,55.0,46.6,-99.9,100,96,60,29.92,29.80,18,9,0,0.72
2013-5-11,49.0,44.7,38.0,49.0,44.0,38.0,100,98,78,29.92,29.74,23,8,0,0.72
2013-5-12,44.0,39.2,36.0,39.0,32.7,-99.9,100,81,56,30.10,29.90,20,10,0,0.72
2013-5-13,54.0,41.9,29.0,38.0,30.0,25.0,100,68,34,30.18,30.07,13,3,0,0.72
2013-5-14,71.0,58.5,43.0,58.0,44.9,32.0,92,62,50,30.06,29.63,15,7,0,0.72
2013-5-15,75.0,66.0,59.0,61.0,52.5,41.0,91,65,31,29.83,29.55,12,4,0,0.57
2013-5-16,79.0,58.5,47.0,54.0,26.8,-99.9,100,60,29,30.03,29.82,13,4,0,0.72
2013-5-17,64.0,57.7,51.0,48.0,38.8,-99.9,75,62,36,30.16,30.03,14,9,0,0.72
2013-5-18,79.0,66.5,54.0,55.0,50.4,45.0,89,59,38,30.14,30.00,11,6,0,0.72
2013-5-19,83.0,71.9,59.0,65.0,55.8,48.0,81,58,44,30.02,29.84,13,4,0,0.72
2013-5-20,84.0,75.5,67.0,72.0,64.6,56.0,96,72,39,29.88,29.75,19,8,0,0.72
2013-5-21,77.0,70.9,63.0,68.0,65.2,62.0,100,83,63,29.78,29.70,14,7,0,0.72
2013-5-22,68.0,64.5,58.0,66.0,64.3,58.0,100,99,92,29.72,29.63,12,3,0,0.72
2013-5-23,58.0,51.5,43.0,58.0,50.7,40.0,100,97,83,30.22,29.70,22,9,0,0.72
2013-5-24,62.0,47.3,36.0,48.0,41.0,36.0,100,81,44,30.38,30.22,14,7,0,0.72
2013-5-25,64.0,52.2,39.0,46.0,41.2,36.0,100,71,36,30.40,30.28,8,3,0,0.69
2013-5-26,67.0,56.5,44.0,48.0,43.2,39.0,100,65,37,30.34,30.21,8,3,0,0.72
2013-5-27,60.0,53.8,49.0,53.0,46.5,41.0,100,78,55,30.23,29.96,14,6,0,0.72
2013-5-28,72.0,60.6,52.0,71.0,60.3,52.0,100,99,89,29.96,29.76,15,4,0,0.72
2013-5-29,74.0,66.2,60.0,71.0,65.5,60.0,100,98,84,29.98,29.78,14,4,0,0.72
2013-5-30,83.0,74.6,65.0,72.0,68.4,64.0,100,82,59,29.98,29.87,18,8,0,0.72
2013-5-31,78.0,72.8,66.0,70.0,67.6,62.0,100,85,58,29.93,29.79,18,11,0,0.72
2013-6-1,76.0,70.8,65.0,70.0,66.4,62.0,100,87,64,29.81,29.67,17,10,0,0.72
2013-6-2,64.0,53.7,45.0,64.0,50.8,-99.9,100,94,83,30.03,29.65,18,8,0,0.72
2013-6-3,67.0,51.0,39.0,49.0,44.1,39.0,100,81,47,30.11,30.02,7,2,0,0.66
2013-6-4,71.0,58.7,46.0,52.0,47.9,44.0,98,71,47,30.20,30.10,13,4,0,0.72
2013-6-5,63.0,59.6,57.0,53.0,48.1,40.0,82,67,43,30.16,30.02,11,6,0,0.63
2013-6-6,66.0,59.1,54.0,57.0,52.0,47.0,99,79,50,30.03,29.91,12,7,0,0.72
2013-6-7,73.0,60.1,49.0,55.0,48.9,40.0,100,72,31,29.96,29.86,15,7,0,0.72
2013-6-8,73.0,62.3,50.0,58.0,54.1,50.0,100,77,48,30.05,29.92,10,2,0,0.72
2013-6-9,78.0,67.4,57.0,65.0,59.8,56.0,98,78,54,30.07,29.92,15,7,0,0.72
2013-6-10,69.0,65.5,61.0,68.0,63.7,57.0,100,94,68,29.92,29.78,12,6,0,0.72
2013-6-11,79.0,66.8,57.0,70.0,63.1,57.0,100,89,67,29.93,29.83,11,3,0,0.72
2013-6-12,74.0,66.6,60.0,71.0,65.4,60.0,100,96,84,29.92,29.68,13,3,0,0.69
2013-6-13,73.0,66.0,60.0,65.0,61.8,58.0,100,87,62,30.00,29.66,20,10,0,0.72
2013-6-14,78.0,64.7,53.0,59.0,54.5,49.0,100,74,39,30.13,30.00,11,6,0,0.72
2013-6-15,74.0,64.1,53.0,66.0,60.4,53.0,100,89,68,30.07,29.85,14,4,0,0.72
2013-6-16,79.0,69.2,61.0,70.0,64.3,61.0,100,86,57,29.91,29.78,14,5,0,0.72
2013-6-17,82.0,69.5,57.0,65.0,60.0,54.0,100,76,40,29.94,29.86,15,4,0,0.72
2013-6-18,70.0,62.1,55.0,63.0,53.4,47.0,100,76,45,30.09,29.94,13,6,0,0.51
2013-6-19,75.0,61.6,48.0,56.0,47.4,43.0,96,64,33,30.19,30.09,8,3,0,0.72
2013-6-20,81.0,63.5,51.0,60.0,53.5,51.0,100,76,38,30.20,30.13,8,2,0,0.48
2013-6-22,86.0,80.3,74.0,72.0,68.8,64.0,90,69,49,30.11,29.98,12,5,0,0.36
2013-6-23,85.0,77.7,68.0,72.0,67.1,60.0,100,73,44,30.03,29.95,16,7,0,0.72
2013-6-24,84.0,75.4,70.0,73.0,68.7,63.0,98,81,49,30.05,29.89,11,5,0,0.72
2013-6-25,77.0,70.5,66.0,72.0,69.0,66.0,100,95,79,29.97,29.83,9,4,0,0.72
2013-6-26,83.0,72.1,65.0,74.0,69.6,65.0,100,92,64,29.87,29.75,11,4,0,0.72
2013-6-27,84.0,74.0,66.0,74.0,69.9,66.0,100,88,54,29.78,29.69,10,4,0,0.72
2013-6-28,78.0,68.9,63.0,70.0,66.3,63.0,100,92,68,29.68,29.57,8,3,0,0.66
2013-6-29,70.0,66.1,61.0,68.0,63.8,61.0,100,93,77,29.78,29.59,14,5,0,0.69
2013-6-30,79.0,69.7,61.0,65.0,59.3,51.0,100,74,39,30.01,29.78,15,7,0,0.72
2013-7-1,77.0,65.9,56.0,59.0,53.1,48.0,91,66,39,30.11,30.01,18,9,0,0.72
2013-7-2,65.0,61.8,58.0,64.0,56.1,42.0,100,84,48,30.12,30.06,12,7,0,0.72
2013-7-3,78.0,65.6,59.0,71.0,62.3,53.0,100,90,63,30.10,30.03,14,5,0,0.72
2013-7-4,77.0,70.0,62.0,69.0,63.6,58.0,100,82,53,30.13,30.07,11,3,0,0.72
2013-7-5,85.0,71.7,62.0,70.0,63.7,61.0,100,80,47,30.12,30.04,9,2,0,0.72
2013-7-6,86.0,72.9,64.0,73.0,67.0,64.0,100,84,48,30.10,30.00,9,2,0,0.69
2013-7-7,85.0,75.6,69.0,74.0,70.4,68.0,100,86,58,30.03,29.96,11,4,0,0.72
2013-7-8,77.0,73.1,70.0,75.0,70.8,-99.9,100,96,91,30.01,29.96,12,4,0,0.72
2013-7-9,85.0,73.5,67.0,76.0,71.0,67.0,100,93,63,30.01,29.86,9,3,0,0.72
2013-7-10,77.0,72.4,63.0,76.0,64.2,-99.9,100,81,58,29.99,29.81,21,8,0,0.69
2013-7-11,78.0,68.4,56.0,64.0,57.4,51.0,100,73,39,30.08,29.99,13,5,0,0.72
2013-7-12,82.0,69.4,56.0,63.0,57.7,50.0,100,71,34,30.19,30.08,8,4,0,0.72
2013-7-13,83.0,72.2,59.0,67.0,59.5,54.0,100,69,39,30.22,30.14,10,3,0,0.72
2013-7-14,88.0,76.8,63.0,73.0,65.8,62.0,98,72,45,30.27,30.20,10,3,0,0.72
2013-7-15,93.0,78.9,69.0,76.0,71.1,67.0,100,80,43,30.31,30.24,9,2,0,0.72
2013-7-16,90.0,80.9,71.0,79.0,73.6,71.0,100,81,57,30.32,30.26,11,3,0,0.69
2013-7-17,93.0,81.7,73.0,79.0,73.9,70.0,100,80,49,30.30,30.19,10,3,0,0.69
2013-7-18,92.0,82.3,74.0,78.0,72.6,68.0,100,76,48,30.19,29.93,12,4,0,0.69
2013-7-19,90.0,83.7,79.0,77.0,73.3,69.0,92,73,52,29.95,29.72,13,7,0,0.69
2013-7-20,83.0,74.7,66.0,74.0,60.4,-99.9,99,65,42,29.97,29.76,13,6,0,0.66
2013-7-21,81.0,69.7,59.0,67.0,57.2,52.0,82,66,45,30.03,29.93,13,5,0,0.72
2013-7-22,84.0,72.7,65.0,71.0,67.4,64.0,100,85,55,29.98,29.74,17,4,0,0.72
2013-7-23,75.0,69.7,57.0,72.0,63.9,51.0,99,82,59,29.96,29.68,22,10,0,0.66
2013-7-24,72.0,60.9,49.0,55.0,50.0,47.0,100,72,42,30.07,29.98,11,6,0,0.72
2013-7-25,78.0,64.1,50.0,60.0,53.5,50.0,100,73,41,30.11,30.05,9,3,0,0.69
2013-7-26,72.0,64.1,59.0,65.0,61.3,56.0,100,91,71,30.06,29.89,11,4,0,0.72
2013-7-27,68.0,61.0,53.0,64.0,58.7,52.0,100,92,79,29.89,29.83,14,5,0,0.72
2013-7-28,66.0,57.2,51.0,59.0,55.1,51.0,100,93,65,29.95,29.81,9,3,0,0.72
2013-7-29,69.0,59.8,55.0,61.0,57.6,55.0,100,93,71,30.20,29.94,11,4,0,0.72
2013-7-30,78.0,63.8,47.0,64.0,55.6,47.0,100,79,44,30.24,30.12,9,2,0,0.72
2013-7-31,69.0,65.0,62.0,68.0,64.5,62.0,100,98,89,30.13,29.92,8,3,0,0.72
2013-8-1,76.0,67.3,60.0,66.0,59.2,52.0,100,79,44,29.95,29.91,17,3,0,0.72
2013-8-2,74.0,65.8,56.0,69.0,64.2,56.0,100,94,83,29.95,29.85,13,4,0,0.72
2013-8-3,75.0,65.3,54.0,65.0,56.6,51.0,100,77,44,30.10,29.93,15,5,0,0.72
2013-8-4,73.0,62.7,53.0,59.0,54.9,48.0,100,79,48,30.21,30.10,13,5,0,0.72
2013-8-5,70.0,59.7,48.0,63.0,54.9,48.0,100,86,55,30.13,29.94,10,3,0,0.72
2013-8-6,74.0,68.0,64.0,72.0,67.0,63.0,100,97,90,29.94,29.86,11,5,0,0.72
2013-8-7,81.0,71.6,63.0,73.0,68.4,63.0,100,90,73,29.96,29.80,13,6,0,0.72
2013-8-8,75.0,65.9,56.0,64.0,55.7,49.0,100,74,43,30.07,29.96,11,6,0,0.72
2013-8-9,78.0,66.1,53.0,65.0,58.9,53.0,100,81,50,30.03,29.98,8,2,0,0.72
2013-8-10,75.0,66.8,57.0,64.0,57.4,53.0,100,75,48,30.16,30.04,12,5,0,0.72
2013-8-11,75.0,65.8,57.0,63.0,59.4,56.0,100,82,53,30.14,30.06,10,2,0,0.72
2013-8-12,77.0,67.6,63.0,70.0,64.7,61.0,100,91,68,30.07,29.88,12,3,0,0.69
2013-8-13,66.0,58.6,52.0,62.0,50.0,-99.9,100,77,49,30.12,29.92,19,11,0,0.72
2013-8-14,70.0,56.9,46.0,56.0,48.2,-99.9,100,77,47,30.21,30.12,13,4,0,0.72
2013-8-15,74.0,55.7,45.0,62.0,40.7,-99.9,100,75,42,30.17,30.09,13,3,0,0.69
2013-8-16,79.0,62.3,47.0,64.0,53.4,-99.9,100,79,39,30.22,30.13,10,2,0,0.66
2013-8-17,81.0,66.7,51.0,65.0,55.1,49.0,100,73,34,30.27,30.19,9,2,0,0.72
2013-8-18,82.0,66.6,52.0,65.0,54.6,-99.9,100,72,38,30.24,30.12,10,2,0,0.72
2013-8-19,82.0,62.9,50.0,67.0,48.5,-99.9,100,79,43,30.13,30.05,12,2,0,0.69
2013-8-20,84.0,70.3,58.0,71.0,60.9,-99.9,100,78,48,30.13,30.06,11,3,0,0.72
2013-8-21,86.0,74.9,63.0,71.0,65.2,62.0,100,75,46,30.10,29.97,16,6,0,0.72
2013-8-22,77.0,69.4,63.0,73.0,68.6,63.0,100,98,75,30.11,29.98,16,4,0,0.69
2013-8-23,79.0,67.7,54.0,67.0,55.8,50.0,100,71,37,30.21,30.10,13,4,0,0.72
2013-8-24,82.0,68.6,55.0,65.0,57.9,53.0,100,74,38,30.31,30.20,11,3,0,0.69
2013-8-25,86.0,72.0,60.0,66.0,61.5,-99.9,100,74,47,30.27,30.13,14,5,0,0.72
2013-8-26,82.0,75.7,70.0,74.0,70.7,66.0,95,85,70,30.15,29.98,13,5,0,0.72
2013-8-27,86.0,76.4,70.0,79.0,74.5,70.0,100,94,72,30.01,29.89,16,6,0,0.48
2013-8-28,83.0,78.4,72.0,74.0,72.9,71.0,100,84,70,30.04,29.97,10,4,0,0.33
2013-8-29,86.0,75.5,66.0,74.0,67.9,63.0,100,80,46,30.11,30.01,9,2,0,0.72
2013-8-30,87.0,74.6,65.0,75.0,70.3,65.0,100,88,58,30.01,29.78,13,5,0,0.72
2013-8-31,77.0,69.8,64.0,70.0,66.8,64.0,100,91,69,29.89,29.82,11,4,0,0.69
2013-9-1,82.0,68.8,61.0,74.0,65.8,-99.9,100,93,67,29.87,29.72,9,3,0,0.72
2013-9-2,70.0,63.0,59.0,70.0,60.8,56.0,100,93,79,29.98,29.77,17,9,0,0.72
2013-9-3,74.0,63.0,53.0,59.0,56.0,53.0,100,80,53,30.06,29.97,12,4,0,0.72
2013-9-4,80.0,65.2,54.0,68.0,59.9,54.0,100,85,56,30.13,30.02,8,3,0,0.72
2013-9-5,71.0,59.6,50.0,63.0,51.3,44.0,100,78,40,30.29,30.13,11,4,0,0.72
2013-9-6,79.0,61.6,46.0,61.0,51.9,46.0,100,76,38,30.26,30.03,12,3,0,0.72
2013-9-7,79.0,70.6,62.0,71.0,67.0,57.0,100,89,69,30.04,29.91,10,4,0,0.69
2013-9-8,73.0,66.6,62.0,67.0,60.0,-99.9,100,83,55,30.11,29.97,13,7,0,0.72
2013-9-9,82.0,68.6,59.0,74.0,66.0,57.0,100,92,73,30.06,29.84,12,6,0,0.72
2013-9-10,90.0,81.5,75.0,76.0,69.0,62.0,96,69,42,29.99,29.84,13,6,0,0.72
2013-9-11,83.0,75.2,65.0,72.0,68.1,61.0,100,80,48,30.06,29.96,11,3,0,0.72
2013-9-12,72.0,64.8,55.0,66.0,59.6,52.0,100,85,61,30.06,29.93,19,7,0,0.72
2013-9-13,62.0,54.2,48.0,52.0,46.1,39.0,100,77,43,30.16,30.06,17,10,0,0.72
2013-9-14,68.0,53.9,39.0,56.0,47.6,39.0,100,82,45,30.19,30.06,10,3,0,0.69
2013-9-15,60.0,54.1,50.0,59.0,51.9,-99.9,100,96,79,30.16,30.03,8,1,0,0.60
2013-9-16,59.0,53.2,46.0,56.0,49.9,46.0,100,90,63,30.38,30.16,11,6,0,0.72
2013-9-17,64.0,51.6,39.0,53.0,46.0,39.0,100,85,49,30.40,30.19,8,3,0,0.72
2013-9-18,65.0,51.4,51.0,53.0,51.4,51.0,100,100,99,30.20,30.00,6,0,0,0.30
2013-9-19,73.0,67.3,63.0,72.0,65.9,59.0,100,95,82,30.02,29.85,13,6,0,0.72
2013-9-20,71.0,68.6,62.0,71.0,68.2,62.0,100,99,96,29.85,29.74,12,6,0,0.72
2013-9-21,62.0,57.4,52.0,62.0,54.9,51.0,100,92,71,29.92,29.73,16,8,0,0.69
2013-9-22,53.0,49.7,44.0,52.0,46.1,-99.9,100,90,79,30.09,29.92,12,5,0,0.72
2013-9-23,61.0,49.5,39.0,50.0,45.1,39.0,100,87,62,30.18,30.09,10,3,0,0.72
2013-9-24,66.0,53.1,42.0,54.0,48.9,42.0,100,87,60,30.14,30.00,10,3,0,0.72
2013-9-25,69.0,55.7,45.0,57.0,51.2,45.0,100,87,49,30.03,29.98,10,2,0,0.72
2013-9-26,72.0,57.3,46.0,60.0,51.3,46.0,100,84,45,30.13,30.01,8,2,0,0.72
2013-9-27,75.0,60.4,47.0,58.0,53.0,47.0,100,80,46,30.22,30.13,11,2,0,0.72
2013-9-28,77.0,64.1,54.0,61.0,56.2,52.0,100,79,42,30.16,29.93,17,6,0,0.69
2013-9-29,71.0,60.8,53.0,64.0,53.7,-99.9,100,81,57,30.03,29.91,14,7,0,0.72
2013-9-30,69.0,57.1,46.0,60.0,52.7,46.0,100,87,52,30.01,29.91,10,3,0,0.72
2013-10-1,69.0,65.9,54.0,67.0,64.6,54.0,100,95,92,29.92,29.90,9,4,0,0.15
2013-10-2,73.0,63.5,51.0,66.0,52.7,41.0,100,75,32,30.11,29.92,7,1,0,0.72
2013-10-3,76.0,63.9,51.0,71.0,61.6,50.0,100,92,79,30.06,29.90,12,3,0,0.66
2013-10-4,76.0,68.7,64.0,71.0,67.7,64.0,100,97,81,30.02,29.88,9,3,0,0.69
2013-10-5,74.0,66.3,62.0,71.0,66.0,62.0,100,99,90,30.02,29.79,14,5,0,0.72
2013-10-6,70.0,59.6,48.0,70.0,59.4,48.0,100,99,90,29.80,29.68,12,4,0,0.72
2013-10-7,60.0,52.2,47.0,55.0,50.4,46.0,100,94,68,30.08,29.67,17,4,0,0.72
2013-10-8,69.0,55.6,42.0,56.0,49.2,42.0,100,82,52,30.23,30.08,15,4,0,0.72
2013-10-9,69.0,57.0,46.0,55.0,50.3,46.0,100,82,48,30.30,30.19,10,3,0,0.72
2013-10-10,70.0,56.5,43.0,57.0,48.9,43.0,100,80,43,30.22,30.11,10,2,0,0.72
2013-10-11,69.0,55.8,43.0,55.0,48.6,43.0,100,81,44,30.16,30.04,9,2,0,0.72
2013-10-12,75.0,61.4,51.0,64.0,55.5,49.0,100,83,48,30.11,29.99,15,4,0,0.69
2013-10-13,60.0,51.5,43.0,60.0,47.8,-99.9,100,91,64,30.39,30.11,14,3,0,0.72
2013-10-14,60.0,49.3,40.0,48.0,42.1,37.0,100,80,43,30.44,30.25,11,3,0,0.72
2013-10-15,64.0,52.8,45.0,61.0,52.2,44.0,100,98,88,30.25,29.77,14,6,0,0.72
2013-10-16,61.0,52.6,50.0,61.0,52.2,50.0,100,99,95,29.88,29.77,11,4,0,0.72
2013-10-17,51.0,47.6,40.0,51.0,47.6,40.0,100,100,100,29.88,29.75,14,3,0,0.72
2013-10-18,59.0,46.3,37.0,55.0,44.5,37.0,100,94,68,29.88,29.82,13,3,0,0.72
2013-10-19,52.0,45.7,40.0,46.0,42.8,34.0,100,91,51,29.87,29.72,12,3,0,0.69
2013-10-20,54.0,45.8,37.0,51.0,41.3,-99.9,100,88,61,29.86,29.72,12,3,0,0.72
2013-10-21,53.0,47.0,39.0,53.0,43.9,30.0,100,89,72,29.87,29.73,11,5,0,0.72
2013-10-22,48.0,40.9,33.0,38.0,34.4,29.0,100,78,61,29.89,29.84,12,4,0,0.72
2013-10-23,44.0,36.4,31.0,40.0,33.1,28.0,100,89,57,29.93,29.85,13,4,0,0.72
2013-10-24,43.0,36.4,31.0,41.0,35.0,31.0,100,95,76,30.19,29.92,20,4,0,0.72
2013-10-25,49.0,41.3,29.0,41.0,35.1,29.0,100,80,60,30.32,29.96,15,6,0,0.51
2013-10-26,52.0,47.0,39.0,45.0,38.7,35.0,94,73,59,30.00,29.72,24,10,0,0.69
2013-10-27,51.0,40.5,32.0,40.0,34.8,-99.9,100,84,58,30.02,29.94,12,3,0,0.72
2013-10-28,44.0,39.6,32.0,41.0,35.7,-99.9,100,90,76,30.40,30.01,15,7,0,0.72
2013-10-29,45.0,39.6,37.0,40.0,36.7,34.0,100,89,79,30.43,30.22,9,6,0,0.72
2013-10-30,58.0,45.2,34.0,57.0,44.4,34.0,100,97,87,30.22,30.14,15,3,0,0.72
2013-10-31,62.0,59.3,56.0,62.0,59.3,55.0,100,100,100,0.00,40.00,18,7,0,0.72
2013-11-1,55.0,46.8,44.0,55.0,46.8,44.0,100,100,100,0.00,40.00,13,5,0,0.72
2013-11-2,47.0,43.7,39.0,46.0,42.9,39.0,100,97,79,0.00,40.00,12,5,0,0.69
2013-11-3,47.0,40.2,33.0,40.0,36.4,-99.9,100,89,69,0.00,40.00,10,6,0,0.75
2013-11-4,51.0,43.9,37.0,43.0,36.7,33.0,99,78,52,0.00,40.00,18,12,0,0.72
2013-11-5,59.0,52.6,49.0,52.0,49.6,43.0,99,89,76,0.00,40.00,14,9,0,0.72
2013-11-6,55.0,49.7,41.0,55.0,49.3,40.0,100,99,82,0.00,40.00,19,12,0,0.72
2013-11-7,42.0,37.2,33.0,40.0,32.6,29.0,100,84,68,0.00,40.00,14,7,0,0.72
2013-11-8,44.0,37.4,31.0,36.0,31.5,28.0,96,80,59,0.00,40.00,9,3,0,0.72
2013-11-9,50.0,45.8,38.0,46.0,39.2,-99.9,90,80,72,0.00,40.00,15,10,0,0.66
2013-11-10,45.0,40.5,31.0,39.0,34.4,31.0,100,79,63,0.00,40.00,20,10,0,0.72
2013-11-11,45.0,35.4,27.0,42.0,33.8,25.0,100,94,82,0.00,40.00,18,9,0,0.72
2013-11-12,33.0,27.0,21.0,29.0,23.1,17.0,100,87,54,0.00,40.00,19,8,0,0.72
2013-11-13,41.0,29.8,18.0,34.0,24.7,18.0,100,83,55,0.00,40.00,17,7,0,0.66
2013-11-14,46.0,41.9,38.0,38.0,34.7,31.0,85,76,69,0.00,40.00,17,9,0,0.69
2013-11-15,49.0,43.7,38.0,41.0,37.7,35.0,93,80,69,0.00,40.00,13,8,0,0.72
2013-11-16,55.0,46.3,36.0,54.0,44.2,-99.9,100,95,90,0.00,40.00,19,11,0,0.69
2013-11-17,64.0,56.0,44.0,63.0,55.9,42.0,100,100,96,0.00,40.00,27,15,0,0.72
2013-11-18,44.0,37.5,34.0,43.0,33.2,28.0,95,84,77,0.00,40.00,16,12,0,0.72
2013-11-19,41.0,34.1,28.0,30.0,27.9,26.0,95,78,60,0.00,40.00,14,4,0,0.72
2013-11-20,43.0,35.6,30.0,34.0,29.3,27.0,94,79,53,0.00,40.00,19,9,0,0.72
2013-11-21,48.0,42.8,37.0,46.0,42.0,35.0,100,97,86,0.00,40.00,12,2,0,0.72
2013-11-22,45.0,35.8,25.0,45.0,34.9,25.0,100,96,83,0.00,40.00,21,9,0,0.72
2013-11-23,29.0,22.3,16.0,27.0,18.7,-99.9,100,89,73,0.00,40.00,24,11,0,0.66
2013-11-24,23.0,19.7,14.0,19.0,16.5,12.0,99,87,73,0.00,40.00,12,7,0,0.72
2013-11-25,33.0,27.4,21.0,33.0,25.5,15.0,100,93,76,0.00,40.00,17,10,0,0.72
2013-11-26,34.0,30.5,24.0,34.0,29.9,22.0,100,97,87,0.00,40.00,21,8,0,0.72
2013-11-27,28.0,22.4,18.0,23.0,18.3,14.0,100,85,63,0.00,40.00,20,9,0,0.72
2013-11-28,24.0,22.5,20.0,24.0,22.3,19.0,100,99,90,0.00,40.00,11,3,0,0.72
2013-11-29,29.0,20.4,10.0,28.0,20.1,10.0,100,99,94,0.00,40.00,8,1,0,0.72
2013-11-30,42.0,33.6,24.0,37.0,29.1,-99.9,98,86,78,0.00,40.00,14,7,0,0.72
2013-12-1,40.0,37.0,33.0,38.0,33.8,29.0,100,89,72,0.00,40.00,12,4,0,0.72
2013-12-2,40.0,34.8,31.0,36.0,31.8,30.0,100,90,70,0.00,40.00,9,2,0,0.54
2013-12-4,40.0,39.5,38.0,40.0,37.7,31.0,100,94,75,32.20,40.00,7,2,9,0.06
2013-12-7,-200.0,0.0,200.0,-99.9,-99.9,-99.9,0,0,100,29.98,29.98,0,0,16,0.00
2013-12-9,29.0,29.0,29.0,25.0,25.0,25.0,85,85,85,29.98,29.98,0,0,16,0.00
2013-12-21,-200.0,0.0,200.0,-99.9,-99.9,-99.9,0,0,100,29.98,29.98,0,0,16,0.00
2013-12-25,29.0,29.0,29.0,25.0,25.0,25.0,85,85,85,29.98,29.98,0,0,16,0.00
2013-12-26,29.0,29.0,29.0,25.0,25.0,25.0,85,85,85,29.98,29.98,0,0,16,0.00
2013-12-27,29.0,29.0,29.0,25.0,25.0,25.0,85,85,85,29.98,29.98,0,0,16,0.00
2013-12-29,29.0,29.0,29.0,25.0,25.0,25.0,85,85,85,29.98,29.98,0,0,16,0.00